Regional Weather Roundup
Issued by NWS

Home | Current Version | Previous Version | Graphics & Text | Print | Product List | Glossary On
Versions: 1 2 3 4 5 6 7 8 9 10 11 12 13 14 15 16 17 18 19 20 21 22 23 24 25 26 27 28 29 30 31 32 33 34 35 36 37 38 39 40 41 42 43 44 45 46 47 48 49 50
233
ASUS43 KFSD 232302
RWRSD

WEATHER ROUNDUP FOR SOUTH DAKOTA
NATIONAL WEATHER SERVICE SIOUX FALLS SD
600 PM CDT TUE MAY 23 2017

NOTE: "FAIR" INDICATES FEW OR NO CLOUDS BELOW 12,000 FEET WITH NO
SIGNIFICANT WEATHER AND/OR OBSTRUCTIONS TO VISIBILITY.


SDZ001>005-009-010-012>017-240000-
NORTHWEST AND NORTH CENTRAL SOUTH DAKOTA

CITY           SKY/WX    TMP DP  RH WIND       PRES   REMARKS
BUFFALO          N/A     65  33  30 NE10      29.98F
FAITH            N/A     62  36  37 N15G22    30.02F
MOBRIDGE       CLOUDY    61  35  37 NE15G29   29.98F
$$

SDZ012>016-024>037-041>051-057-063-072>074-240000-
SOUTHWEST AND SOUTH CENTRAL SOUTH DAKOTA

CITY           SKY/WX    TMP DP  RH WIND       PRES   REMARKS
RAPID CTY ARPT MOSUNNY   64  34  32 N17G28    30.04F
PIERRE         CLOUDY    55  39  54 N18       30.00S
CUSTER         SUNNY     56  27  32 N8G20     30.09F
ELLSWORTH AFB  SUNNY     64  33  31 N16G26    30.04
PHILIP         PTSUNNY   62  37  39 N22G30    30.02F
PINE RIDGE     MOSUNNY   60  37  42 N18G24    30.05F
SPEARFISH      FAIR      61  36  39 NE8       30.09S
WINNER         CLOUDY    55  41  59 N21G28    29.99R
$$

SDZ004>011-016>023-039-040-240000-
NORTHEAST SOUTH DAKOTA

CITY           SKY/WX    TMP DP  RH WIND       PRES   REMARKS
ABERDEEN       CLOUDY    55  41  59 NE18      29.97R
WATERTOWN      CLOUDY    52  46  80 N14       29.89S
BROOKINGS      LGT RAIN  51  47  86 N18       29.88S
SISSETON         N/A     56  47  71 N21       29.91S
$$

SDZ017-020-022-023-036>040-048>070-240000-
SOUTHEAST SOUTH DAKOTA

CITY           SKY/WX    TMP DP  RH WIND       PRES   REMARKS
SIOUX FALLS    CLOUDY    55  47  74 NE21G26   29.86R
HURON          CLOUDY    53  45  74 N15       29.95R
CHAMBERLAIN    CLOUDY    56  44  64 N14       29.98S
MITCHELL       CLOUDY    55  45  68 N17       29.93S
YANKTON        CLOUDY    53  48  83 NW17      29.87F
$$

ABBREVIATIONS USED IN REMARKS
   TC - TEMPERATURE IN CELSIUS
  WCI - WIND CHILL INDEX
   HX - HEAT INDEX
  VSB - VISIBILITY





USA.gov is the U.S. government's official web portal to all federal, state and local government web resources and services.